Pittsburgh Allegheny Co., PA

11:36 PM EDT on May 28, 2017 (GMT -0400)
Allegheny County

Weather History for KAGC - December, 2014

Change the Weather History Date:

Monday, December 15, 2014

  Actual Average Record
Temperature  
Mean Temperature 42 °F -  
Max Temperature 46 °F 45 °F 59 °F (2011)
Min Temperature 37 °F 22 °F 12 °F (1988)
Degree Days  
Heating Degree Days 24    
Moisture  
Dew Point 37 °F    
Average Humidity 86    
Maximum Humidity 93    
Minimum Humidity 73    
Precipitation  
Precipitation 0.00 in - - ()
Sea Level Pressure  
Sea Level Pressure 30.05 in    
Wind  
Wind Speed 6 mph (SSE)    
Max Wind Speed 9 mph    
Max Gust Speed -    
Visibility 2 miles    
Events Fog    
Averages and records for this station are not official NWS values.
T = Trace of Precipitation, MM = Missing Value Source: NWS Daily Summary

Daily Weather History Graph

Daily Weather History Graph

Search for Another Location

Airport or City:

Trip Planner

Search our weather history database for the weather conditions in past years. The results will help you decide how hot, cold, wet, or windy it might be!

Date:

Astronomy

Dec. 15, 2014 Rise Set
Actual Time 7:35 AM EST 4:54 PM EST
Civil Twilight 7:04 AM EST 5:25 PM EST
Nautical Twilight 6:30 AM EST 5:59 PM EST
Astronomical Twilight 5:57 AM EST 6:32 PM EST
Moon 12:51 AM EST (12/15) 12:54 PM EST (12/15)
Length of Visible Light 10h 20m
Length of Day
9h 18m
Last Quarter, 39% of the Moon is Illuminated
Dec 15
Last Quarter
Dec 21
New
Dec 28
First Quarter
Jan 4
Full
Jan 13
Last Quarter

Hourly Weather History & Observations

Time (EST) Temp. Windchill Dew Point Humidity Pressure Visibility Wind Dir Wind Speed Gust Speed Precip Events Conditions
12:06 AM 41.0 °F 36.4 °F 37.0 °F 86% 30.08 in 2.0 mi SW 6.9 mph - N/A   Overcast
12:16 AM 41.0 °F 36.4 °F 37.0 °F 86% 30.08 in 2.0 mi WSW 6.9 mph - N/A   Overcast
12:40 AM 41.0 °F 35.8 °F 37.0 °F 86% 30.08 in 1.8 mi SW 8.1 mph - N/A   Overcast
12:53 AM 41.0 °F 35.8 °F 37.0 °F 86% 30.12 in 1.8 mi WSW 8.1 mph - N/A   Overcast
1:12 AM 41.0 °F 35.8 °F 37.0 °F 86% 30.08 in 2.0 mi WSW 8.1 mph - N/A   Overcast
1:42 AM 41.0 °F 35.8 °F 37.0 °F 86% 30.08 in 2.0 mi SW 8.1 mph - N/A   Overcast
1:53 AM 39.9 °F 34.5 °F 37.0 °F 89% 30.12 in 1.8 mi WSW 8.1 mph - N/A   Overcast
2:02 AM 41.0 °F 36.4 °F 37.0 °F 86% 30.08 in 2.0 mi WSW 6.9 mph - N/A   Overcast
2:53 AM 41.0 °F 36.4 °F 37.0 °F 86% 30.12 in 2.5 mi SW 6.9 mph - N/A   Overcast
3:40 AM 41.0 °F 36.4 °F 37.0 °F 86% 30.09 in 2.0 mi SSW 6.9 mph - N/A   Overcast
3:53 AM 39.9 °F 35.8 °F 37.0 °F 89% 30.12 in 2.0 mi SW 5.8 mph - N/A   Overcast
4:18 AM 39.9 °F 35.8 °F 37.0 °F 89% 30.09 in 1.8 mi SSW 5.8 mph - N/A   Overcast
4:33 AM 39.9 °F 36.7 °F 37.0 °F 89% 30.09 in 2.0 mi SW 4.6 mph - N/A   Overcast
4:53 AM 39.9 °F 35.8 °F 37.0 °F 89% 30.12 in 2.0 mi SW 5.8 mph - N/A   Overcast
5:25 AM 39.9 °F 36.7 °F 37.0 °F 89% 30.09 in 1.8 mi SSW 4.6 mph - N/A   Overcast
5:53 AM 39.9 °F 35.1 °F 37.0 °F 89% 30.12 in 1.8 mi South 6.9 mph - N/A   Overcast
6:53 AM 39.2 °F 35.9 °F 37.4 °F 93% 30.09 in 1.5 mi South 4.6 mph - N/A   Overcast
7:31 AM 39.9 °F 36.7 °F 37.0 °F 89% 30.08 in 0.5 mi SSE 4.6 mph - N/A Fog Fog
7:53 AM 39.9 °F 35.8 °F 37.0 °F 89% 30.12 in 0.2 mi South 5.8 mph - N/A Fog Fog
8:01 AM 39.9 °F 37.8 °F 37.0 °F 89% 30.08 in 0.5 mi South 3.5 mph - N/A Fog Fog
8:09 AM 39.9 °F 36.7 °F 37.0 °F 89% 30.09 in 0.2 mi South 4.6 mph - N/A Fog Fog
8:53 AM 39.9 °F 35.1 °F 37.0 °F 89% 30.13 in 0.2 mi South 6.9 mph - N/A Fog Fog
9:09 AM 39.9 °F 37.8 °F 37.0 °F 89% 30.09 in 0.2 mi South 3.5 mph - N/A Fog Fog
9:23 AM 39.9 °F 36.7 °F 37.9 °F 93% 30.09 in 0.2 mi South 4.6 mph - N/A Fog Fog
9:34 AM 39.9 °F 35.8 °F 37.9 °F 93% 30.10 in 0.2 mi South 5.8 mph - N/A Fog Fog
9:44 AM 39.9 °F 35.8 °F 37.9 °F 93% 30.10 in 0.2 mi South 5.8 mph - N/A Fog Fog
9:53 AM 39.9 °F 35.8 °F 37.9 °F 93% 30.13 in 0.2 mi SSE 5.8 mph - N/A Fog Fog
10:43 AM 41.0 °F 37.1 °F 37.9 °F 89% 30.08 in 0.2 mi SSE 5.8 mph - N/A Fog Fog
10:53 AM 41.0 °F 35.8 °F 37.9 °F 89% 30.12 in 0.2 mi South 8.1 mph - N/A Fog Fog
11:16 AM 42.1 °F 38.4 °F 39.0 °F 89% 30.07 in 0.5 mi South 5.8 mph - N/A Fog Fog
11:51 AM 42.8 °F - 39.2 °F 87% 30.05 in 1.0 mi Calm Calm - N/A   Overcast
11:53 AM 42.1 °F - 39.0 °F 89% 30.09 in 1.0 mi Calm Calm - N/A   Overcast
12:49 PM 42.8 °F 39.3 °F 39.2 °F 87% 30.01 in 1.0 mi SSE 5.8 mph - N/A   Overcast
12:53 PM 43.0 °F 40.3 °F 39.0 °F 86% 30.05 in 1.0 mi ESE 4.6 mph - N/A   Overcast
1:15 PM 42.8 °F 41.1 °F 39.2 °F 87% 30.01 in 2.0 mi ESE 3.5 mph - N/A   Overcast
1:31 PM 44.1 °F - 39.0 °F 82% 30.00 in 3.0 mi Calm Calm - N/A   Haze
1:38 PM 45.0 °F - 39.0 °F 80% 30.00 in 3.0 mi Calm Calm - N/A   Haze
1:53 PM 45.0 °F - 39.0 °F 80% 30.04 in 3.0 mi Calm Calm - N/A   Haze
2:53 PM 46.0 °F 43.1 °F 39.0 °F 76% 30.02 in 4.0 mi East 5.8 mph - N/A   Haze
3:00 PM 46.0 °F 43.1 °F 39.0 °F 76% 29.99 in 4.0 mi East 5.8 mph - N/A   Haze
3:53 PM 45.0 °F 41.8 °F 37.9 °F 76% 30.03 in 5.0 mi ESE 5.8 mph - N/A   Haze
4:01 PM 45.0 °F 40.1 °F 37.9 °F 76% 29.99 in 5.0 mi East 9.2 mph - N/A   Haze
4:37 PM 45.0 °F 41.8 °F 37.0 °F 74% 29.99 in 2.5 mi East 5.8 mph - N/A   Haze
4:45 PM 45.0 °F 40.1 °F 37.0 °F 74% 29.99 in 2.5 mi East 9.2 mph - N/A   Haze
4:53 PM 45.0 °F 41.2 °F 37.0 °F 74% 30.02 in 3.0 mi ENE 6.9 mph - N/A   Haze
5:53 PM 44.1 °F 42.5 °F 36.0 °F 73% 30.02 in 5.0 mi ENE 3.5 mph - N/A   Haze
6:07 PM 43.0 °F 40.3 °F 36.0 °F 76% 29.98 in 6.0 mi ENE 4.6 mph - N/A   Haze
6:53 PM 42.1 °F 39.2 °F 36.0 °F 79% 30.01 in 6.0 mi ENE 4.6 mph - N/A   Haze
7:53 PM 42.1 °F 37.7 °F 36.0 °F 79% 29.99 in 6.0 mi East 6.9 mph - N/A   Haze
8:53 PM 41.0 °F 38.0 °F 36.0 °F 82% 29.98 in 6.0 mi East 4.6 mph - N/A   Haze
9:53 PM 39.9 °F 37.8 °F 36.0 °F 86% 29.96 in 4.0 mi SE 3.5 mph - N/A   Clear
10:53 PM 39.0 °F 34.8 °F 35.1 °F 86% 29.94 in 5.0 mi ESE 5.8 mph - N/A   Clear
11:06 PM 37.9 °F 33.5 °F 35.1 °F 89% 29.89 in 1.8 mi ESE 5.8 mph - N/A   Clear
11:24 PM 37.0 °F 33.3 °F 35.1 °F 93% 29.90 in 1.8 mi SSE 4.6 mph - N/A   Scattered Clouds
11:34 PM 37.0 °F 33.3 °F 35.1 °F 93% 29.89 in 1.8 mi SSE 4.6 mph - N/A   Mostly Cloudy
11:53 PM 37.0 °F 32.4 °F 35.1 °F 93% 29.93 in 3.0 mi SSE 5.8 mph - N/A   Mostly Cloudy
11:55 PM 37.0 °F 32.4 °F 35.1 °F 93% 29.89 in 3.0 mi SSE 5.8 mph - N/A   Mostly Cloudy